Weather History for Sidney, NE

Change the Weather History Date:

Saturday, December 21, 2013

  Actual Average Record
Temperature  
Mean Temperature 32 °F 28 °F  
Max Temperature 51 °F 41 °F 68 °F (1981)
Min Temperature 18 °F 15 °F -23 °F (1998)
Degree Days  
Heating Degree Days 33 37  
Month to date heating degree days 736 758  
Since 1 July heating degree days 2228 2180  
Moisture  
Dew Point 16 °F    
Average Humidity 44    
Maximum Humidity 61    
Minimum Humidity 26    
Precipitation  
Precipitation 0.00 in 0.02 in 0.34 in (1968)
Month to date precipitation T 0.40  
Year to date precipitation 16.92 18.40  
Sea Level Pressure  
Sea Level Pressure 29.70 in    
Wind  
Wind Speed 10 mph (NW)    
Max Wind Speed 22 mph    
Max Gust Speed 28 mph    
Visibility 9 miles    
Events      
T = Trace of Precipitation, MM = Missing Value Source: NWS Daily Summary

Daily Weather History Graph

Daily Weather History Graph

Search for Another Location

Airport:

Trip Planner

Search our weather history database for the weather conditions in past years. The results will help you decide how hot, cold, wet, or windy it might be!

Date:

Astronomy

Dec. 21, 2013 Rise Set
Actual Time 7:13 AM MST 4:26 PM MST
Civil Twilight 6:42 AM MST 4:57 PM MST
Nautical Twilight 6:07 AM MST 5:32 PM MST
Astronomical Twilight 5:34 AM MST 6:06 PM MST
Moon 8:47 PM MST (12/21) 9:39 AM MST (12/21)
Length of Visible Light 10h 15m
Length of Day
9h 12m
Waning Gibbous, 84% of the Moon is Illuminated
Dec 21
Waning Gibbous
Dec 25
Last Quarter
Jan 1
New
Jan 7
First Quarter
Jan 15
Full

Hourly Weather History & Observations

Time (MST) Temp. Windchill Dew Point Humidity Pressure Visibility Wind Dir Wind Speed Gust Speed Precip Events Conditions
12:53 AM - - - N/A% 29.63 in 8.0 mi West 4.6 mph - N/A   Clear
1:53 AM - - - N/A% 29.61 in 8.0 mi WNW 8.1 mph - N/A   Clear
2:53 AM - - - N/A% 29.60 in 8.0 mi WNW 8.1 mph - N/A   Clear
3:53 AM - - - N/A% 29.59 in 8.0 mi West 5.8 mph - N/A   Clear
4:53 AM - - - N/A% 29.58 in 9.0 mi WSW 5.8 mph - N/A   Clear
5:53 AM - - - N/A% 29.60 in 9.0 mi West 5.8 mph - N/A   Clear
6:53 AM - - - N/A% 29.62 in 9.0 mi West 5.8 mph - N/A   Clear
7:53 AM 18.0 °F 9.8 °F 7.0 °F 62% 29.72 in 7.0 mi WNW 5.8 mph - N/A   Clear
8:53 AM 30.9 °F 24.3 °F 14.0 °F 50% 29.68 in 6.0 mi WNW 6.9 mph - N/A   Haze
9:53 AM 41.0 °F 35.2 °F 19.0 °F 41% 29.65 in 7.0 mi NW 9.2 mph - N/A   Clear
10:53 AM 46.0 °F 43.9 °F 21.0 °F 37% 29.67 in 9.0 mi West 4.6 mph - N/A   Overcast
11:53 AM 51.1 °F - 17.1 °F 26% 29.63 in 10.0 mi WSW 9.2 mph - N/A   Overcast
12:53 PM - - - N/A% 29.62 in 10.0 mi NW 21.9 mph 27.6 mph N/A   Overcast
1:53 PM - - - N/A% 29.63 in 10.0 mi NW 20.7 mph - N/A   Mostly Cloudy
2:33 PM - - - N/A% 29.63 in 10.0 mi NNW 17.3 mph - N/A   Overcast
2:53 PM - - - N/A% 29.65 in 10.0 mi NW 17.3 mph - N/A   Overcast
3:18 PM - - - N/A% 29.67 in 10.0 mi North 17.3 mph - N/A   Overcast
3:53 PM - - - N/A% 29.69 in 10.0 mi North 13.8 mph - N/A   Overcast
4:39 PM - - - N/A% 29.70 in 10.0 mi North 10.4 mph - N/A   Overcast
4:53 PM - - - N/A% 29.71 in 10.0 mi North 15.0 mph - N/A   Overcast
5:53 PM - - - N/A% 29.74 in 10.0 mi North 12.7 mph - 0.00 in   Overcast
6:53 PM - - - N/A% 29.77 in 10.0 mi North 16.1 mph - N/A   Overcast
7:08 PM - - - N/A% 29.78 in 10.0 mi North 15.0 mph 23.0 mph N/A   Mostly Cloudy
7:53 PM - - - N/A% 29.80 in 10.0 mi NNW 16.1 mph - N/A   Overcast
8:45 PM - - - N/A% 29.82 in 10.0 mi NNW 11.5 mph - N/A   Mostly Cloudy
8:53 PM - - - N/A% 29.82 in 10.0 mi NNW 10.4 mph - N/A   Scattered Clouds
9:53 PM - - - N/A% 29.84 in 10.0 mi North 9.2 mph - N/A   Clear
10:53 PM - - - N/A% 29.86 in 10.0 mi Calm Calm - N/A   Mostly Cloudy
11:53 PM - - - N/A% 29.86 in 10.0 mi WNW 5.8 mph - N/A   Overcast